Miscellaneous Local Product
Issued by NWS Hastings, NE

Home | Current Version | Previous Version | Text Only | Print | Product List | Glossary Off
Versions: 1 2 3 4 5 6 7 8 9 10 11 12 13 14 15 16 17 18 19 20 21 22 23 24 25 26 27 28 29 30 31 32 33 34 35 36 37 38 39 40 41 42 43 44 45 46 47 48 49 50

000
AXUS43 KGID 230802
MISGRI

GID CWA HOURLY WEATHER ROUNDUP
NATIONAL WEATHER SERVICE HASTINGS NE
300 AM CDT MON APR 23 2018

NOTE: "FAIR" INDICATES FEW OR NO CLOUDS BELOW 12,000 FEET WITH NO
SIGNIFICANT WEATHER AND/OR OBSTRUCTIONS TO VISIBILITY.

...SOUTH CENTRAL NEBRASKA...

CITY           SKY/WX    TMP DP  RH WIND       PRES   REMARKS
GRAND ISLAND   CLOUDY    50  42  74 CALM      30.17F
KEARNEY        CLOUDY    50  42  74 NW3       30.17F
HASTINGS       CLOUDY    50  43  77 CALM      30.16F
ORD            CLEAR     36  32  85 CALM      30.16F
YORK             N/A     45  32  61 CALM      30.17S
AURORA         CLOUDY    50  37  60 NE3       30.17S
LEXINGTON      CLEAR     38  35  90 NW6       30.18S WCI  33
HOLDREGE       CLOUDY    40  36  84 CALM      30.16F
HEBRON         CLEAR     43  36  76 CALM      30.16S

...NEBRASKA PANHANDLE...

CITY           SKY/WX    TMP DP  RH WIND       PRES   REMARKS
CHADRON        CLEAR     47  37  68 S16       30.09F
ALLIANCE       CLEAR     35  34  96 S7        30.13F WCI  29
SCOTTSBLUFF    CLEAR     39  37  92 E10       30.12F WCI  32
SIDNEY         CLEAR     35  32  88 S8        30.14F WCI  29

...WESTERN AND NORTH CENTRAL NEBRASKA...

CITY           SKY/WX    TMP DP  RH WIND       PRES   REMARKS
VALENTINE      CLEAR     40  36  86 SW7       30.15F
AINSWORTH      CLEAR     39  37  94 S6        30.16F WCI  34
ONEILL         CLEAR     47  37  66 S5        30.17F
BROKEN BOW     CLEAR     35  32  88 CALM      30.17F
IMPERIAL       CLEAR     36  34  92 CALM      30.17F
NORTH PLATTE   CLEAR     36  34  92 CALM      30.18S FOG
MCCOOK         CLEAR     38  35  89 W3        30.17F

...EASTERN NEBRASKA...

CITY           SKY/WX    TMP DP  RH WIND       PRES   REMARKS
NORFOLK        CLEAR     42  33  70 SE3       30.17F
SO SIOUX CITY  CLEAR     39  36  89 CALM      30.19F
TEKAMAH        CLEAR     37  34  89 N9        30.18S WCI  30
COLUMBUS       PTCLDY    41  30  65 E3        30.18S
ALBION         CLOUDY    51  38  60 CALM      30.18S
OMAHA EPPLEY   CLEAR     45  28  51 NW5       30.17S
OFFUTT AFB     CLEAR     47  26  44 E5        30.16S
MILLARD        CLEAR     49  29  45 CALM      30.17S
LINCOLN        CLEAR     38  31  76 N7        30.17S WCI  33
NEBRASKA CITY  CLEAR     48  31  50 CALM      30.16S
BEATRICE       CLEAR     46  34  63 CALM      30.15S
FALLS CITY     PTCLDY    49  36  61 N6        30.13S

...NORTHERN KANSAS...

CITY           SKY/WX    TMP DP  RH WIND       PRES   REMARKS
GOODLAND       CLEAR     35  33  92 S3        30.16F
HILL CITY      CLEAR     37  36  96 CALM      30.17F
NORTON         SUNNY     39  36  87 W5        30.16F
PHILLIPSBURG   CLOUDY    48  39  71 NW5       30.17S
SMITH CENTER   PTCLDY    48  43  81 NW6       30.16F
BELOIT         PTCLDY    45  41  87 CALM      30.14F
HAYS           CLOUDY    50  43  77 NW8       30.15F
RUSSELL        CLOUDY    50  45  83 NW7       30.14S
CONCORDIA      CLEAR     47  39  74 N3        30.13F
SALINA         CLEAR     45  42  89 NW5       30.13S
TOPEKA         CLOUDY    50  42  74 NW5       30.10S



USA.gov is the U.S. government's official web portal to all federal, state and local government web resources and services.